SB KEPS @ AMSAT $ORB14065.N 2Line Orbital Elements 14065.AMSAT
HR AMSAT ORBITAL ELEMENTS FOR AMATEUR SATELLITES IN NASA FORMAT FROM WA5QGD FORT WORTH,TX March 6, 2014 BID: ORB14065.N
DECODE 2-LINE ELSETS WITH THE FOLLOWING KEY: 1 AAAAAU 00 0 0 BBBBB.BBBBBBBB .CCCCCCCC 00000-0 00000-0 0 DDDZ 2 AAAAA EEE.EEEE FFF.FFFF GGGGGGG HHH.HHHH III.IIII JJ.JJJJJJJJKKKKKZ KEY: A-CATALOGNUM B-EPOCHTIME C-DECAY D-ELSETNUM E-INCLINATION F-RAAN G-ECCENTRICITY H-ARGPERIGEE I-MNANOM J-MNMOTION K-ORBITNUM Z-CHECKSUM
TO ALL RADIO AMATEURS BT
AO-07 1 07530U 74089B 14064.86844212 -.00000010 00000-0 21041-3 0 9097 2 07530 101.4625 050.1420 0012250 135.5321 285.9349 12.53602659798573 FO-29 1 24278U 96046B 14065.13596562 -.00000017 00000-0 19103-4 0 3240 2 24278 098.5204 093.1902 0350390 204.8555 201.5893 13.53016952866739 SO-33 1 25509U 98061B 14064.29447128 .00001330 00000-0 24921-3 0 7027 2 25509 031.4351 028.9876 0350267 284.2276 188.9817 14.29339862802272 RS-22 1 27939U 03042A 14065.72179099 .00002130 00000-0 40571-3 0 2820 2 27939 097.8039 245.0045 0014287 073.8870 286.3899 14.64959993557723 VO-52 1 28650U 05017B 14064.87611441 .00003675 00000-0 43500-3 0 6758 2 28650 097.5622 075.0394 0026780 136.4286 223.9051 14.84909010477898 HO-68 1 36122U 09072B 14065.72938727 -.00000043 00000-0 00000 0 0 3859 2 36122 100.2653 120.6752 0007909 114.1672 246.0263 13.16312374202955 AO-73 1 39444U 13066AE 14065.25676924 .00005373 00000-0 73350-3 0 829 2 39444 097.7861 139.4050 0061866 216.5203 143.1766 14.77689359 14262 UO-11 1 14781U 84021B 14064.62818421 .00001153 00000-0 15415-3 0 4313 2 14781 097.8650 126.7197 0009779 152.1752 207.9986 14.81364133612639 AO-16 1 20439U 90005D 14064.08628713 .00000271 00000-0 11641-3 0 9707 2 20439 098.4991 003.4292 0012084 106.8634 318.8455 14.32297510259580 LO-19 1 20442U 90005G 14065.05210104 .00000247 00000-0 10685-3 0 9081 2 20442 098.4697 005.3437 0013095 094.8514 265.4166 14.32503256259926 AO-27 1 22825U 93061C 14064.96500817 .00000220 00000-0 10324-3 0 6128 2 22825 098.6515 011.6576 0007591 234.9483 191.2205 14.29670362 66031 IO-26 1 22826U 93061D 14064.89902053 .00000252 00000-0 11470-3 0 3696 2 22826 098.6459 011.8288 0008214 227.6595 132.3892 14.29965503 66152 GO-32 1 25397U 98043D 14064.83457763 .00000144 00000-0 81695-4 0 2926 2 25397 098.4558 026.7498 0000621 183.5494 256.4561 14.23412715813164 NO-44 1 26931U 01043C 14065.09879926 .00000222 00000-0 11769-3 0 5499 2 26931 067.0522 304.2798 0005340 273.9098 086.1393 14.30056166648862 SO-50 1 27607U 02058C 14064.79921475 .00001604 00000-0 26452-3 0 3218 2 27607 064.5576 187.4495 0036160 048.0908 312.3267 14.73487577602241 CO-55 1 27844U 03031E 14065.00988251 .00000481 00000-0 24013-3 0 8716 2 27844 098.7004 075.2665 0009475 206.7186 207.0344 14.21413305553929 CO-57 1 27848U 03031J 14064.51895420 .00000408 00000-0 20802-3 0 8126 2 27848 098.7097 074.4367 0009222 214.8070 298.3348 14.21112488553775 AO-51 1 28375U 04025K 14064.90983934 .00000496 00000-0 16079-3 0 7876 2 28375 098.2392 015.4028 0081978 304.9691 054.3819 14.41306152509028 CP3 1 31129U 07012N 14064.22208574 .00003235 00000-0 72440-3 0 6890 2 31129 097.9248 047.5490 0098260 335.6309 089.8815 14.54351501364922 CO-65 1 32785U 08021C 14065.14449630 .00003133 00000-0 37444-3 0 8863 2 32785 097.7129 119.7813 0014651 162.9020 253.1583 14.84817408316731 PRISM 1 33493U 09002B 14065.79915905 .00010553 00000-0 11436-2 0 7049 2 33493 098.2405 237.2096 0018385 059.8145 300.4847 14.88279375276946 SOHLA-1 1 33496U 09002E 14064.43314421 .00000929 00000-0 16104-3 0 2902 2 33496 098.1555 185.2069 0006257 201.6664 202.6975 14.70633196274268 TISAT-1 1 36799U 10035E 14065.75518337 .00006837 00000-0 80939-3 0 9680 2 36799 098.0189 157.0375 0012973 298.4352 061.5520 14.84850311197511 STUDSAT 1 36801U 10035G 14064.49709219 .00020276 00000-0 19283-2 0 7814 2 36801 098.0328 161.9586 0009800 270.8277 217.9050 14.93442405197632 ALMASAT-1 1 38078U 12006B 14065.16235924 .00043726 00000-0 97344-3 0 9535 2 38078 069.4717 306.2603 0631418 168.4132 321.9444 14.40714848106746 XATCOBEO 1 38082U 12006F 14065.89774052 .00253481 15568-4 30130-2 0 91 2 38082 069.4536 235.5541 0367220 130.1270 348.4643 15.08659262108729 CUBEBUG-1 1 39153U 13018D 14065.76001673 .00003875 00000-0 55228-3 0 9145 2 39153 098.0486 146.2686 0017582 324.1309 035.8705 14.77270543 46431 ESTCUBE-1 1 39161U 13021C 14065.83833518 .00003051 00000-0 52064-3 0 8877 2 39161 098.1038 147.4849 0010233 008.7103 351.4254 14.69650143 44568 MET-3/5 1 21655U 91056A 14065.18523033 .00000461 00000-0 11640-2 0 9187 2 21655 082.5530 069.1923 0013292 189.3461 170.7416 13.17050025 84421 MET-2/21 1 22782U 93055A 14064.52104562 .00000098 00000-0 74879-4 0 9944 2 22782 082.5462 255.5524 0022337 193.0283 222.1044 13.83726545 35783 OKEAN-4 1 23317U 94066A 14064.54675715 .00002230 00000-0 25647-3 0 4726 2 23317 082.5407 165.0743 0022149 084.0071 357.4770 14.85198661 47720 NOAA-14 1 23455U 94089A 14065.18326535 -.00000036 00000-0 37993-5 0 6744 2 23455 098.7817 150.4339 0008753 338.0304 080.2536 14.13954766989398 NOAA-15 1 25338U 98030A 14065.89845594 .00000527 00000-0 22369-3 0 1035 2 25338 098.7466 059.9866 0011622 086.4819 273.8173 14.25360330822273 RESURS 1 25394U 98043A 14064.04579444 .00000118 00000-0 68935-4 0 6025 2 25394 098.4006 032.8723 0001562 159.8216 242.1087 14.24374081813496 FENGYUN1 1 25730U 99025A 14065.14581144 .00003622 00000-0 20123-2 0 956 2 25730 098.9054 026.9402 0028863 039.4333 026.1530 14.11512775762982 OKEAN-0 1 25860U 99039A 14064.86841468 .00001592 00000-0 24403-3 0 1918 2 25860 098.0301 029.4365 0001865 080.2390 332.0118 14.75034808786925 NOAA-16 1 26536U 00055A 14065.83282289 .00000455 00000-0 24404-3 0 5908 2 26536 099.0040 125.6888 0011325 112.5332 247.7510 14.13000514693668 NOAA-17 1 27453U 02032A 14065.86980823 .00000394 00000-0 16916-3 0 4973 2 27453 098.3133 070.9787 0012764 112.5433 247.7580 14.24700071608123 NOAA-18 1 28654U 05018A 14065.90809759 .00000532 00000-0 29066-3 0 9774 2 28654 099.1368 043.4114 0014160 188.2527 171.8896 14.11962177453163 NOAA-19 1 33591U 09005A 14065.91496528 .00000570 00000-0 31316-3 0 1491 2 33591 098.9343 011.3140 0015049 050.3711 309.9272 14.11656805261564 HUBBLE 1 20580U 90037B 14065.15801595 .00004227 00000-0 27997-3 0 4520 2 20580 028.4713 354.1815 0002970 267.1643 195.2025 15.04836657109173 ISS 1 25544U 98067A 14065.82791197 .00023288 00000-0 39817-3 0 8230 2 25544 051.6476 246.9749 0003301 215.2823 290.9207 15.51158040875449 CO-58 1 28895U 05043F 14064.50791553 .00001487 00000-0 30741-3 0 7103 2 28895 097.8445 271.7167 0016933 342.1885 017.8721 14.61630239445100 FALCON 1 30776U 07006E 14065.13919167 .00013012 00000-0 69731-3 0 8163 2 30776 035.4308 030.9375 0000964 245.5404 183.2146 15.14256727385098 MAST 1 31126U 07012K 14064.92341494 .00001867 00000-0 41995-3 0 9896 2 31126 097.9056 051.2662 0091296 317.1167 094.2113 14.55054306365373 CAPE1 1 31130U 07012P 14064.18346515 .00003197 00000-0 71915-3 0 9947 2 31130 097.9259 047.0993 0098837 336.9626 022.7154 14.54126058364698 COMPASS 1 32787U 08021E 14065.11640429 .00004413 00000-0 49668-3 0 8707 2 32787 097.7151 121.5774 0014964 157.5684 202.6190 14.87074673316867 AAUSAT2 1 32788U 08021F 14064.83105350 .00006338 00000-0 70002-3 0 8563 2 32788 097.7159 122.1686 0014523 156.7275 203.4602 14.87692010316872 DO-64 1 32789U 08021G 14065.18457293 .00010876 00000-0 10846-2 0 8931 2 32789 097.7330 128.0839 0013793 145.9526 278.0193 14.91660249317133 CO-66 1 32791U 08021J 14065.11951974 .00003570 00000-0 41460-3 0 8538 2 32791 097.7146 120.5483 0015428 160.0887 200.0934 14.85905203316747 RS-30 1 32953U 08025A 14065.85150511 .00000010 00000-0 00000 0 0 7122 2 32953 082.4968 264.8440 0019046 021.8592 338.3292 12.43043401262547 METEOR-M 1 35865U 09049A 14065.77048445 .00000078 00000-0 54460-4 0 3211 2 35865 098.5652 116.2240 0003312 043.1091 317.0336 14.21911582231785 RS-38 1 35869U 09049E 14065.13427698 .00000078 00000-0 54196-4 0 2626 2 35869 098.5572 115.4414 0005078 047.4604 009.7206 14.22186017231725 JUGNU 1 37839U 11058B 14063.61703845 .00000570 00000-0 16269-3 0 5741 2 37839 019.9610 168.6848 0018932 273.0667 211.7361 14.12260365123752 SRMSAT 1 37841U 11058D 14064.67207097 .00000493 00000-0 12676-3 0 5763 2 37841 019.9713 179.5392 0011693 227.9979 263.1438 14.10311083123720 RAX-2 1 37853U 11061D 14065.17972463 .00018035 00000-0 12610-2 0 7425 2 37853 101.7152 045.8428 0222606 354.5939 069.8031 14.87514972127333 AUBIESAT 1 37854U 11061E 14065.18575413 .00020623 00000-0 14017-2 0 7251 2 37854 101.7195 047.3648 0221014 352.3241 072.0013 14.88656192127378 HRBE 1 37855U 11061F 14064.53351921 .00019698 00000-0 13527-2 0 7341 2 37855 101.7197 045.9161 0222941 355.1331 116.4557 14.88049018127252 RS-39 1 38051U 11062C 14065.30867353 .00066873 00000-0 13180-2 0 3289 2 38051 051.6319 015.6472 0010068 135.3359 022.8540 15.46529328118111 E-STAR 1 38079U 12006C 14065.61971735 .00131902 60950-5 20095-2 0 7718 2 38079 069.4548 257.4908 0464443 142.0561 221.3510 14.83688176108111 GOLIAT 1 38085U 12006J 14065.86690039 .00111529 00000-0 17366-2 0 8623 2 38085 069.4625 261.9001 0480873 144.2481 219.2448 14.79642485108000 HORYU-2 1 38340U 12025D 14064.85614672 .00004183 00000-0 67413-3 0 7833 2 38340 098.2502 020.4142 0012712 138.7550 221.4613 14.71970150 96594 RS-40 1 38735U 12041C 14065.14107873 .00000024 00000-0 10000-3 0 5065 2 38735 082.4814 351.7951 0017458 116.8039 243.4834 12.42557015 72783 PROITERES 1 38756U 12047B 14065.34066133 .00002136 00000-0 32727-3 0 6392 2 38756 098.2301 151.9552 0012626 358.1207 001.9952 14.74715090 80029 BEESAT-3 1 39134U 13015E 14065.42435175 .00012911 00000-0 95084-3 0 5198 2 39134 064.8720 103.4383 0018990 327.2783 032.7158 15.03471161 48209 BEESAT-2 1 39136U 13015G 14065.58579055 .00011225 00000-0 83699-3 0 5100 2 39136 064.8720 103.1406 0018816 326.5499 033.4409 15.03091002 48228 LO-75 1 39382U 13064C 14065.66540847 .00082870 00000-0 27638-2 0 1417 2 39382 040.4997 346.5132 0008758 247.5639 112.3981 15.30006652 16277 ZACUBE-1 1 39417U 13066B 14064.78636731 .00004285 00000-0 58811-3 0 2365 2 39417 097.7838 138.9433 0061873 218.1449 141.5344 14.77581021 15423 TRITON-1 1 39427U 13066M 14065.75189895 .00003794 00000-0 64811-3 0 895 2 39427 097.7727 137.7673 0118261 215.8224 143.4991 14.64946444 15398 DELFIN3XT 1 39428U 13066N 14065.72647189 .00006073 00000-0 10678-2 0 937 2 39428 097.7711 137.3316 0129653 216.7448 142.4762 14.62581346 15352 GOMX-1 1 39430U 13066Q 14065.75163660 .00003630 00000-0 70169-3 0 2817 2 39430 097.7697 136.3669 0156624 219.0715 139.9028 14.56391381 15301 $50SAT 1 39436U 13066W 14064.99413641 .00028532 00000-0 31880-2 0 1177 2 39436 097.7882 140.3908 0029500 227.0263 132.8309 14.86585841 15520 LO-74 1 39440U 13066AA 14065.75242540 .00004204 00000-0 63270-3 0 870 2 39440 097.7800 139.0386 0084159 214.2736 145.3001 14.72566048 15503 PUCPSAT-1 1 39442U 13066AC 14065.19546914 .00006656 00000-0 77225-3 0 847 2 39442 097.7885 140.6020 0034180 222.9847 136.8734 14.85319377 14332 SHINAISAT 1 39572U 14009A 14065.68497258 .00057701 00000-0 72768-3 0 180 2 39572 065.0128 036.2611 0011879 282.5940 077.3888 15.59177208 1079 OPUSAT 1 39575U 14009D 14065.74396491 .00056108 00000-0 67662-3 0 207 2 39575 065.0160 036.0219 0006999 305.1477 054.9538 15.60413048 1085 TEIKYOSAT 1 39576U 14009E 14065.68107565 .00212389 00000-0 25264-2 0 153 2 39576 065.0124 036.2348 0007970 291.8158 068.2662 15.60761625 1070 IFT-1 1 39577U 14009F 14064.33121169 .00085436 00000-0 99967-3 0 187 2 39577 065.0125 040.8312 0005236 318.3473 041.7278 15.61076446 868 INVADER 1 39578U 14009G 14064.45796428 .00157984 00000-0 17746-2 0 145 2 39578 065.0124 040.3853 0004428 319.6127 040.4690 15.61864630 881 STARS-II 1 39579U 14009H 14063.82239603 .00084006 00000-0 10303-2 0 116 2 39579 065.0112 042.6025 0008858 289.6369 070.3398 15.59821087 782 /EX
participants (1)
-
Ray Hoad